{"data":{"norad_id":59932,"intl_designator":"2024-106L","name":"STARLINK-31432","alt_names":[],"object_type":"PAYLOAD","status":"ACTIVE","operator":null,"country":"US","launch_date":"2024-06-01","launch_site_code":"AFETR","launch_vehicle":null,"mission":null,"orbit_class":"UNKNOWN","rcs_meters":null,"size_class":null,"mass_kg":null,"dimensions":null,"purposes":["comms"],"wikipedia_slug":null,"has_3d_model":false,"image_url":null,"decayed_at":null,"tle_current":{"epoch":"2026-05-25T00:14:26.858112Z","epoch_age_seconds":67569,"freshness":"FRESH","line1":"1 59932U 24106L   26145.01003308 -.00118907  00000+0 -43864-2 0  9998","line2":"2 59932  42.9983 261.6222 0002455 279.3408  80.7166 15.27537203112181","mean_motion":15.27537203,"eccentricity":0.0002455,"inclination_deg":42.9983,"raan_deg":261.6222,"arg_perigee_deg":279.3408,"mean_anomaly_deg":80.7166,"bstar":-0.0043864,"rev_number":11218,"period_min":94.269389784545,"perigee_km":481.49279599771,"apogee_km":484.8617012938,"semimajor_km":6861.3142486458,"source":"CELESTRAK","updated_at":"2026-05-25T13:38:19.123769Z"}}}